Погода Зея

Погода Зея : погода сейчас, прогноз погоды и архив. Всё, что Вы хотите узнать о погоде Зея!

Хотите узнать прогноз погоды Зея? Тогда Вам сюда: Погода Зея

Поиск расширенной информации на нашем сайте:

Другие новости

Новости СМИ2

Главная страница сайта

Новости сайта

03.07.2017

Напоминаем, что на нашем специализированном сайте Метеоцентр.Азия вы можете получить высокодетализированные автоматические прогнозы погоды по пунктам России, СНГ и мира в авиационном формате (включающие направление и скорость ветра, видимость, явления погоды, количество и форму облачности, нижнюю и верхнюю границу облачности).


Погода Зея - сегодня

Время (UTC), дата Ветер
(°,м/с) 
Видим.   Явления Облачность Т
(°С)
Тd
(°С)
f(%) Тe
(°С)
Pmin
(гПа)
dP
(гПа)
Po
(мм)
O2
(г/м3)
Тmin Tmax R s Состояние
почвы
03 14.08.18 тихо ()   20000 м    8/4 600 м средняя 
[Cu Sc|Ac trans]
+21.2 +14.2 64 +29  1015.4  0.8  741  274           
06 14.08.18 тихо ()   20000 м  слаб. ливневой дождь  8/4 600 м кучево-дожд., средняя, верхняя 
[Cb cap|Ac trans|Ci fib]
+24.7 +9.9 39 +26  1014.3  -0.8  741  272           
09 14.08.18 300 (СЗ) 20000 м    ясно 
+23.5 +9.4 41 +24  1014.1  -0.3  741  273           
15 14.08.18 тихо ()   20000 м    ясно 
+12.5 +10.9 90 +15  1018.9  1.5  743  284           
18 14.08.18 тихо ()   20000 м    ясно 
+11.7 +9.6 87 +13  1019.5  0.5  744  286           
21 14.08.18 тихо ()   20000 м    ясно 
+8.3 +7.2 93 +8  1021.2  1.3  745  290           
00 15.08.18 тихо ()   20000 м    3/0 средняя, верхняя 
[Ac trans|Ci sp]
+19.5 +12.1 62 +24  1021.2  1.1  746  278  +8.1        сухая 
03 15.08.18 170 (Ю) 20000 м    1/1 600 м 
[Cu med, cong]
+24.2 +10.5 42 +26  1020.4  -0.3  745  274           
06 15.08.18 210 (ЮЗ) 20000 м    3/3 600 м 
[Cu med, cong]
+26.1 +9.2 34 +26  1019  -1.3  744  272           
09 15.08.18 310 (СЗ) 20000 м    ясно 
+24 +9.5 40 +25  1018.1  -1  744  274           
12 15.08.18 тихо ()   20000 м    ясно 
+16 +13.3 84 +22  1019  0.2  744  280    +26.2       
15 15.08.18 тихо ()   20000 м    ясно 
+12.5 +11.3 92 +16  1019.7  0.3  744  285           
18 15.08.18 тихо ()   20000 м    ясно 
+9.8 +8.7 93 +10  1020.2  0.2  744  288           
21 15.08.18 тихо ()   20000 м    8/0 средняя, верхняя 
[Ac trans|Ci sp]
+8.7 +7.8 94 +9  1020.3  744  289           
00 16.08.18 150 (ЮВ) 20000 м    6/0 средняя, верхняя 
[Ac trans|Ci sp]
+18.3 +12.1 67 +23  1018.8  -0.5  744  279  +8.4        сухая 
03 16.08.18 150 (ЮВ) 20000 м    10/0 средняя, верхняя 
[Ac trans|Ci sp]
+24.6 +12.5 47 +29  1017.5  -0.8  743  272           
06 16.08.18 180 (Ю) 20000 м    10/0 средняя, верхняя 
[Ac trans|Ci sp]
+27 +9.8 34 +28  1015.1  -2.1  742  270           
09 16.08.18 150 (ЮВ) 20000 м    10/0 средняя, верхняя 
[Ac trans|Cs]
+23.8 +11.3 45 +27  1014.6  -0.7  741  273           
15 16.08.18 тихо ()   20000 м    10/0 средняя, верхняя 
[Ac trans|Ci sp]
+16.5 +11 70 +19  1014.9  -0.2  741  279           
18 16.08.18 тихо ()   20000 м    10/0 верхняя 
[Ci sp]
+14.5 +10.4 76 +16  1013.7  -1.4  740  281           
21 16.08.18 тихо ()   20000 м    10/6 600 м верхняя 
[Sc|Ci sp]
+12.9 +10.7 86 +15  1012.5  -1.3  739  282           
00 17.08.18 160 (Ю) 20000 м    10/3 1000 м средняя, верхняя 
[Cu hum|Ac trans|Ci fib]
+18.5 +11.5 64 +23  1010.9  -1  738  276  +12.8        сухая 
03 17.08.18 160 (Ю) 20000 м    10/4 1000 м средняя, верхняя 
[Cu hum|Ac trans|Ci fib]
+21.7 +13.3 59 +28  1008.6  -2  737  272           
06 17.08.18 190 (Ю) 20000 м    10/10 600 м кучево-дожд. 
[Cb cap]
+22.1 +10.8 49 +25  1006.9  -1.6  735  272           
09 17.08.18 180 (Ю) 20000 м    10/6 600 м средняя, верхняя 
[Sc diur, vesp|Ac trans|Ci sp]
+21.3 +12.7 58 +27  1006.1  -0.9  735  272           
Время (UTC), дата Ветер
(°,м/с) 
Видим.   Явления Облачность Т
(°С)
Тd
(°С)
f(%) Тe
(°С)
Pmin
(гПа)
dP
(гПа)
Po
(мм)
O2
(г/м3)
Тmin Tmax R s Состояние
почвы

Для получения пояснительной информации подведите курсор к названию столбца.

ПОГОДА Зея - архив

Всё, что Вы хотите узнать о погоде Зея - удобно и подробно!

Выберите нужную дату (начиная с 1 января 2015* года) и нажмите кнопку "Найти".
Будут отображены архивные сводки погоды по пункту Зея, начиная с указанной даты.


Отображать данные в формате CSV (для использования в таблицах Excel)


Внимание! Наш архив погоды предназначен исключительно для личного некоммерческого использования в познавательных целях. Если Вам необходимы официальные справки о состоянии погоды (для производственных, юридических, коммерческих и т.п. целей), обращайтесь в органы Росгидромета.

*Примечание: данная дата относится к архиву по метеостанциям СССР (Россия, СНГ, Балтия).
Архив по метеостанциям Зарубежной Европы и Азии (кроме Китая) хранится 10 дней, по другим регионам земного шара (Китай, Африка, Америка, Австралия, Океания) - 1 день.

Зея - район местоположения метеостанции


Название, широта, долгота, высота метеостанции:
Зея 53.7°ш. 127.3°д. 229 м над ур. моря [Российская Федерация]

Дополнительная информация

В oтличие oт бoльшинства пoгoдных сайтoв мы публикуем пoдрoбную метеoинфoрмацию в детальнoм прoфессиoнальнoм фoрмате.

Характеристики температуры и влажнoсти вoздуха измеряются на высoте 2 м в тени вдали oт зданий и деревьев.
Скoрoсть ветра измеряется на высoте 10 м (на урoвне рoста челoвека скoрoсть ветра ниже в 1.5-2 раза). Если метеoстанция нахoдится в гoрoде или в лесу, тo скoрoсть ветра занижена на 2-4 м/с пo сравнению с oткрытым местoм. Скoрoсть ветра над акватoриями крупных рек и oзёр, а также на вершинах хoлмoв на 2-5 м/с выше, чем в oбычных услoвиях.
Атмoсфернoе давление в разных тoчках местнoсти мoжет значительнo oтличаться oт давления на метеoстанции, в зависимoсти oт услoвий рельефа (при пoдъёме на 10 м давление пoнижается примернo на 1 мм рт.ст.).